Powrót do katalogu

PRISMA

TANGO

AktywnyNaukaSSO
NORAD 36827·PAYLOAD·🇸🇪 Sweden

Wystrzelony Jun 15, 2010 z Dombarovsky

Loading…

Następne Przeloty (najbliższe 24 godziny)

TLE

ŚwieżeSource: Space-Track

Epoka: Sep 13, 2026, 23:41 UTC

1 36827U 10028F   26256.98704894  .00000194  00000-0  67973-4 0  9997
2 36827  98.4227 107.1553 0040488 324.8762  34.9761 14.44868974715714

Śledź PRISMA w czasie rzeczywistym z AllMySat

Download on the App Store